| time (UTC) | temp F | wind direction | speed knots | gust knots | rain 1hr in | rain 24hr in | rain mn in | humidity % | barometer mb |
| 20260506050638 | 26 | 275 | 0.0 | 0.0 | 0.00 | 0.02 | 0.02 | 99 | 1019.9 |
| 20260506050134 | 26 | 275 | 0.0 | 0.0 | 0.00 | 0.02 | 0.02 | 99 | 1020.2 |
| 20260506045126 | 26 | 275 | 0.0 | 0.0 | 0.00 | 0.02 | 0.02 | 99 | 1020.3 |
| 20260506044625 | 26 | 275 | 0.0 | 0.0 | 0.00 | 0.02 | 0.02 | 99 | 1020.3 |
| 20260506044122 | 26 | 275 | 0.0 | 0.0 | 0.00 | 0.02 | 0.02 | 99 | 1020.3 |
| 20260506043619 | 26 | 275 | 0.0 | 0.0 | 0.00 | 0.02 | 0.02 | 99 | 1020.4 |
| 20260506043117 | 26 | 275 | 0.0 | 0.0 | 0.00 | 0.02 | 0.02 | 99 | 1020.3 |
| 20260506042616 | 26 | 275 | 0.0 | 0.0 | 0.00 | 0.02 | 0.02 | 99 | 1020.2 |
| 20260506042113 | 26 | 275 | 0.0 | 0.0 | 0.00 | 0.02 | 0.02 | 99 | 1020.2 |
| 20260506041612 | 26 | 275 | 0.0 | 0.0 | 0.00 | 0.02 | 0.02 | 99 | 1020.2 |
| 20260506041108 | 26 | 275 | 0.0 | 0.0 | 0.00 | 0.02 | 0.02 | 99 | 1020.2 |
| 20260506040606 | 26 | 276 | 0.0 | 0.0 | 0.00 | 0.02 | 0.02 | 99 | 1020.6 |
| 20260506035559 | 26 | 276 | 0.0 | 0.0 | 0.00 | 0.02 | 0.02 | 99 | 1020.2 |
| 20260506035056 | 26 | 276 | 0.0 | 0.0 | 0.00 | 0.02 | 0.02 | 99 | 1019.9 |
| 20260506034553 | 26 | 276 | 0.0 | 0.0 | 0.00 | 0.02 | 0.02 | 99 | 1019.9 |
| 20260506034050 | 26 | 276 | 0.0 | 0.0 | 0.00 | 0.02 | 0.02 | 99 | 1020.1 |
| 20260506033547 | 26 | 276 | 0.0 | 0.0 | 0.00 | 0.02 | 0.02 | 99 | 1020.1 |
| 20260506033044 | 26 | 276 | 0.0 | 0.0 | 0.00 | 0.02 | 0.02 | 99 | 1019.8 |
| 20260506032542 | 26 | 276 | 0.0 | 0.0 | 0.00 | 0.02 | 0.02 | 99 | 1019.8 |
| 20260506032038 | 26 | 276 | 0.0 | 0.0 | 0.00 | 0.02 | 0.02 | 99 | 1019.8 |
| 20260506031536 | 26 | 276 | 0.0 | 0.0 | 0.00 | 0.02 | 0.02 | 99 | 1019.9 |
| 20260506031033 | 26 | 276 | 0.0 | 0.0 | 0.00 | 0.02 | 0.02 | 99 | 1019.7 |
| 20260506030531 | 26 | 276 | 0.0 | 0.0 | 0.00 | 0.02 | 0.02 | 99 | 1019.4 |
| 20260506030028 | 26 | 276 | 0.0 | 0.0 | 0.00 | 0.02 | 0.02 | 99 | 1019.3 |
| 20260506025525 | 26 | 276 | 0.0 | 0.0 | 0.00 | 0.02 | 0.02 | 99 | 1019.6 |
| 20260506025021 | 26 | 276 | 0.0 | 0.0 | 0.00 | 0.02 | 0.02 | 99 | 1019.2 |
| 20260506024518 | 26 | 277 | 0.0 | 0.0 | 0.00 | 0.02 | 0.02 | 99 | 1019.2 |
| 20260506024014 | 26 | 276 | 0.0 | 0.0 | 0.00 | 0.02 | 0.02 | 99 | 1019.3 |
| 20260506023510 | 26 | 277 | 0.0 | 0.0 | 0.00 | 0.02 | 0.02 | 99 | 1019.0 |
| 20260506023008 | 26 | 277 | 0.0 | 0.0 | 0.00 | 0.02 | 0.02 | 99 | 1019.2 |
| 20260506022505 | 26 | 277 | 0.0 | 0.0 | 0.00 | 0.02 | 0.02 | 99 | 1019.0 |
| 20260506022003 | 26 | 277 | 0.0 | 0.0 | 0.00 | 0.02 | 0.02 | 99 | 1018.9 |
| 20260506021500 | 26 | 277 | 0.0 | 0.0 | 0.00 | 0.02 | 0.02 | 99 | 1018.7 |
| 20260506020957 | 26 | 277 | 0.0 | 0.0 | 0.00 | 0.02 | 0.02 | 99 | 1019.0 |
| 20260506020455 | 26 | 277 | 0.0 | 0.0 | 0.00 | 0.02 | 0.02 | 99 | 1018.9 |
| 20260506015951 | 26 | 278 | 0.0 | 0.0 | 0.00 | 0.02 | 0.02 | 99 | 1018.9 |
| 20260506015449 | 26 | 247 | 0.0 | 0.0 | 0.00 | 0.02 | 0.02 | 99 | 1018.7 |
| 20260506014946 | 27 | 234 | 0.0 | 0.0 | 0.00 | 0.02 | 0.02 | 99 | 1018.4 |
| 20260506014443 | 27 | 229 | 0.0 | 0.0 | 0.00 | 0.02 | 0.02 | 99 | 1018.2 |
| 20260506013939 | 27 | 232 | 0.0 | 0.0 | 0.00 | 0.02 | 0.02 | 99 | 1018.4 |
| 20260506013438 | 26 | 232 | 0.0 | 0.0 | 0.00 | 0.02 | 0.02 | 99 | 1018.8 |
| 20260506012933 | 27 | 0 | 0.0 | 0.0 | 0.00 | 0.02 | 0.02 | 99 | 1018.3 |
| 20260506012430 | 27 | 334 | 0.0 | 0.0 | 0.00 | 0.02 | 0.02 | 99 | 1018.3 |
| 20260506011927 | 27 | 270 | 0.9 | 0.9 | 0.00 | 0.02 | 0.02 | 99 | 1018.2 |
| 20260506011424 | 27 | 284 | 0.0 | 0.0 | 0.00 | 0.02 | 0.02 | 99 | 1018.3 |
| 20260506010921 | 27 | 228 | 0.0 | 0.0 | 0.00 | 0.02 | 0.02 | 99 | 1018.2 |
| 20260506010420 | 28 | 231 | 0.0 | 0.0 | 0.00 | 0.02 | 0.02 | 99 | 1018.3 |
| 20260506005915 | 28 | 233 | 0.0 | 0.0 | 0.00 | 0.02 | 0.02 | 99 | 1018.4 |
| 20260506005414 | 28 | 239 | 0.0 | 0.9 | 0.00 | 0.02 | 0.02 | 99 | 1018.3 |
| 20260506004909 | 28 | 346 | 1.7 | 1.7 | 0.00 | 0.02 | 0.02 | 99 | 1018.3 |
| 20260506004407 | 28 | 284 | 1.7 | 1.7 | 0.00 | 0.02 | 0.02 | 99 | 1017.9 |
| 20260506003902 | 28 | 21 | 1.7 | 1.7 | 0.00 | 0.02 | 0.02 | 99 | 1017.9 |
| 20260506003359 | 28 | 8 | 0.0 | 0.9 | 0.00 | 0.02 | 0.02 | 99 | 1018.0 |
| 20260506002856 | 28 | 279 | 0.0 | 0.0 | 0.00 | 0.02 | 0.02 | 99 | 1017.9 |
| 20260506002352 | 28 | 322 | 0.9 | 1.7 | 0.00 | 0.02 | 0.02 | 99 | 1018.2 |
| 20260506001848 | 29 | 233 | 0.0 | 0.0 | 0.00 | 0.02 | 0.02 | 99 | 1018.0 |
| 20260506001344 | 29 | 233 | 0.9 | 0.9 | 0.00 | 0.02 | 0.02 | 99 | 1017.9 |
| 20260506000842 | 29 | 333 | 1.7 | 1.7 | 0.00 | 0.02 | 0.02 | 99 | 1017.7 |
| 20260506000340 | 30 | 278 | 1.7 | 2.6 | 0.00 | 0.02 | 0.02 | 99 | 1017.7 |
| 20260505235836 | 29 | 218 | 0.0 | 0.0 | 0.00 | 0.02 | 0.02 | 99 | 1017.5 |
| 20260505235334 | 29 | 326 | 0.0 | 0.9 | 0.00 | 0.02 | 0.02 | 99 | 1017.7 |
| 20260505234830 | 30 | 6 | 0.9 | 1.7 | 0.00 | 0.02 | 0.02 | 99 | 1017.7 |
| 20260505234328 | 30 | 268 | 0.9 | 0.9 | 0.00 | 0.02 | 0.02 | 99 | 1017.5 |
| 20260505233825 | 29 | 232 | 0.9 | 0.9 | 0.00 | 0.02 | 0.02 | 99 | 1017.4 |
| 20260505233323 | 30 | 227 | 0.9 | 0.9 | 0.00 | 0.02 | 0.02 | 99 | 1017.4 |
| 20260505232820 | 30 | 312 | 0.9 | 0.9 | 0.00 | 0.02 | 0.02 | 99 | 1017.4 |
| 20260505232317 | 30 | 302 | 2.6 | 4.3 | 0.00 | 0.02 | 0.02 | 99 | 1017.4 |
| 20260505231814 | 30 | 47 | 1.7 | 1.7 | 0.00 | 0.02 | 0.02 | 99 | 1017.5 |
| 20260505231312 | 30 | 265 | 0.0 | 0.9 | 0.00 | 0.02 | 0.02 | 99 | 1017.8 |
| 20260505230809 | 30 | 252 | 2.6 | 2.6 | 0.00 | 0.02 | 0.02 | 99 | 1017.7 |
| 20260505230306 | 30 | 304 | 2.6 | 2.6 | 0.00 | 0.02 | 0.02 | 99 | 1017.3 |
| 20260505225803 | 31 | 321 | 0.9 | 0.9 | 0.00 | 0.02 | 0.02 | 99 | 1017.0 |
| 20260505225300 | 31 | 288 | 3.5 | 4.3 | 0.00 | 0.02 | 0.02 | 99 | 1016.6 |
| 20260505224755 | 32 | 296 | 2.6 | 2.6 | 0.00 | 0.02 | 0.02 | 99 | 1017.0 |
| 20260505224254 | 32 | 352 | 2.6 | 2.6 | 0.00 | 0.02 | 0.02 | 99 | 1016.9 |
| 20260505223751 | 32 | 258 | 2.6 | 2.6 | 0.00 | 0.02 | 0.02 | 99 | 1017.4 |
| 20260505223247 | 32 | 220 | 0.0 | 0.9 | 0.00 | 0.02 | 0.02 | 99 | 1017.4 |
| 20260505222743 | 32 | 228 | 0.0 | 0.0 | 0.00 | 0.02 | 0.02 | 99 | 1017.0 |
| 20260505222239 | 32 | 235 | 0.9 | 0.9 | 0.00 | 0.02 | 0.02 | 99 | 1017.0 |
| 20260505221736 | 32 | 236 | 2.6 | 2.6 | 0.00 | 0.02 | 0.02 | 99 | 1016.9 |
| 20260505221233 | 32 | 226 | 0.0 | 0.0 | 0.00 | 0.02 | 0.02 | 99 | 1016.8 |
| 20260505220730 | 32 | 349 | 1.7 | 1.7 | 0.00 | 0.02 | 0.02 | 99 | 1016.5 |
| 20260505220228 | 32 | 313 | 0.9 | 1.7 | 0.00 | 0.02 | 0.02 | 99 | 1016.9 |
| 20260505215726 | 32 | 227 | 0.0 | 0.0 | 0.00 | 0.02 | 0.02 | 99 | 1016.6 |
| 20260505215223 | 32 | 74 | 2.6 | 2.6 | 0.07 | 0.02 | 0.02 | 99 | 1016.6 |
| 20260505214721 | 33 | 281 | 0.0 | 0.0 | 0.07 | 0.02 | 0.02 | 99 | 1016.8 |
| 20260505214218 | 33 | 231 | 0.9 | 0.9 | 0.00 | 0.01 | 0.01 | 99 | 1016.8 |
| 20260505213715 | 33 | 223 | 0.0 | 0.0 | 0.00 | 0.01 | 0.01 | 99 | 1016.9 |
| 20260505213212 | 32 | 266 | 0.9 | 0.9 | 0.00 | 0.01 | 0.01 | 99 | 1016.8 |
| 20260505212708 | 33 | 342 | 2.6 | 2.6 | 0.00 | 0.01 | 0.01 | 99 | 1016.9 |
| 20260505212206 | 32 | 68 | 1.7 | 1.7 | 0.00 | 0.01 | 0.01 | 99 | 1016.8 |
| 20260505211702 | 32 | 227 | 0.0 | 0.9 | 0.00 | 0.01 | 0.01 | 99 | 1016.6 |
| 20260505211200 | 33 | 60 | 1.7 | 2.6 | 0.00 | 0.01 | 0.01 | 99 | 1017.0 |
| 20260505210656 | 32 | 223 | 0.9 | 0.9 | 0.00 | 0.01 | 0.01 | 99 | 1017.0 |
| 20260505210153 | 32 | 28 | 1.7 | 1.7 | 0.00 | 0.01 | 0.01 | 99 | 1017.4 |
| 20260505205651 | 32 | 187 | 1.7 | 1.7 | 0.00 | 0.01 | 0.01 | 99 | 1017.3 |
| 20260505205149 | 33 | 4 | 4.3 | 6.1 | 0.00 | 0.01 | 0.01 | 99 | 1017.5 |
| 20260505204645 | 34 | 46 | 2.6 | 2.6 | 0.00 | 0.01 | 0.01 | 99 | 1017.3 |
| 20260505204143 | 33 | 66 | 2.6 | 2.6 | 0.00 | 0.01 | 0.01 | 99 | 1017.2 |
| 20260505203640 | 33 | 77 | 0.0 | 0.9 | 0.00 | 0.01 | 0.01 | 99 | 1017.5 |
| 20260505203137 | 33 | 6 | 2.6 | 5.2 | 0.00 | 0.01 | 0.01 | 99 | 1017.8 |
| 20260505202632 | 33 | 66 | 2.6 | 2.6 | 0.00 | 0.01 | 0.01 | 98 | 1017.9 |
| 20260505202128 | 34 | 21 | 5.2 | 7.0 | 0.00 | 0.01 | 0.01 | 98 | 1017.7 |
| 20260505201625 | 34 | 255 | 0.9 | 0.9 | 0.00 | 0.01 | 0.01 | 97 | 1017.5 |
| 20260505201117 | 35 | 218 | 0.0 | 0.0 | 0.00 | 0.01 | 0.01 | 98 | 1017.3 |
| 20260505200615 | 34 | 205 | 1.7 | 2.6 | 0.00 | 0.01 | 0.01 | 97 | 1017.5 |
| 20260505200112 | 34 | 166 | 0.9 | 1.7 | 0.00 | 0.01 | 0.01 | 98 | 1017.8 |
| 20260505195608 | 34 | 278 | 0.9 | 0.9 | 0.00 | 0.01 | 0.01 | 98 | 1017.7 |
| 20260505195106 | 34 | 296 | 2.6 | 4.3 | 0.00 | 0.01 | 0.01 | 97 | 1017.9 |
| 20260505194602 | 34 | 92 | 1.7 | 2.6 | 0.00 | 0.01 | 0.01 | 98 | 1017.9 |
| 20260505194058 | 33 | 203 | 0.9 | 0.9 | 0.00 | 0.01 | 0.01 | 98 | 1017.8 |
| 20260505193555 | 34 | 30 | 0.9 | 1.7 | 0.00 | 0.01 | 0.01 | 97 | 1017.9 |
| 20260505193052 | 34 | 72 | 4.3 | 6.1 | 0.00 | 0.01 | 0.01 | 98 | 1017.8 |
| 20260505192551 | 33 | 131 | 0.9 | 1.7 | 0.00 | 0.01 | 0.01 | 98 | 1018.0 |
| 20260505192048 | 33 | 238 | 2.6 | 2.6 | 0.00 | 0.01 | 0.01 | 99 | 1017.8 |
| 20260505191546 | 33 | 52 | 0.0 | 0.9 | 0.00 | 0.01 | 0.01 | 99 | 1017.7 |
| 20260505191044 | 33 | 165 | 0.0 | 0.9 | 0.00 | 0.01 | 0.01 | 99 | 1018.2 |
| 20260505190538 | 33 | 262 | 0.0 | 0.9 | 0.00 | 0.01 | 0.01 | 99 | 1018.0 |
| 20260505190034 | 33 | 92 | 1.7 | 1.7 | 0.00 | 0.01 | 0.01 | 99 | 1018.2 |
| 20260505185531 | 34 | 225 | 0.0 | 0.9 | 0.00 | 0.01 | 0.01 | 99 | 1018.3 |
| 20260505185028 | 33 | 229 | 2.6 | 2.6 | 0.00 | 0.01 | 0.01 | 99 | 1018.0 |
| 20260505184524 | 33 | 278 | 1.7 | 1.7 | 0.00 | 0.01 | 0.01 | 99 | 1018.3 |
| 20260505184022 | 33 | 265 | 1.7 | 1.7 | 0.00 | 0.01 | 0.01 | 99 | 1018.2 |
| 20260505183518 | 33 | 222 | 0.9 | 1.7 | 0.00 | 0.01 | 0.01 | 99 | 1018.2 |
| 20260505183015 | 33 | 258 | 2.6 | 2.6 | 0.00 | 0.01 | 0.01 | 99 | 1018.3 |
| 20260505182512 | 33 | 203 | 2.6 | 2.6 | 0.00 | 0.01 | 0.01 | 99 | 1018.4 |
| 20260505182008 | 32 | 239 | 1.7 | 1.7 | 0.00 | 0.01 | 0.01 | 99 | 1018.5 |
| 20260505181505 | 32 | 303 | 0.9 | 0.9 | 0.00 | 0.01 | 0.01 | 99 | 1018.5 |
| 20260505181002 | 32 | 60 | 1.7 | 2.6 | 0.00 | 0.01 | 0.01 | 99 | 1018.7 |
| 20260505180458 | 32 | 196 | 4.3 | 5.2 | 0.00 | 0.01 | 0.01 | 99 | 1018.7 |
| 20260505175955 | 32 | 292 | 0.0 | 0.9 | 0.00 | 0.01 | 0.01 | 99 | 1018.8 |
| 20260505175445 | 32 | 167 | 1.7 | 2.6 | 0.00 | 0.01 | 0.01 | 99 | 1018.5 |
| 20260505174941 | 32 | 323 | 0.0 | 0.9 | 0.00 | 0.01 | 0.01 | 99 | 1019.0 |
| 20260505174434 | 32 | 334 | 0.9 | 1.7 | 0.00 | 0.01 | 0.01 | 99 | 1018.8 |
| 20260505173929 | 32 | 88 | 0.0 | 0.9 | 0.00 | 0.01 | 0.01 | 99 | 1018.9 |
| 20260505173426 | 32 | 28 | 1.7 | 2.6 | 0.00 | 0.01 | 0.01 | 99 | 1018.8 |
| 20260505172923 | 32 | 219 | 0.0 | 0.0 | 0.00 | 0.01 | 0.01 | 99 | 1018.9 |
| 20260505172422 | 32 | 185 | 0.0 | 0.0 | 0.00 | 0.01 | 0.01 | 99 | 1018.7 |
| 20260505171920 | 32 | 247 | 1.7 | 1.7 | 0.00 | 0.01 | 0.01 | 99 | 1018.9 |
| 20260505171418 | 32 | 221 | 0.0 | 0.0 | 0.00 | 0.01 | 0.01 | 99 | 1019.0 |
| 20260505170914 | 32 | 170 | 2.6 | 2.6 | 0.00 | 0.01 | 0.01 | 99 | 1019.0 |
| 20260505170411 | 32 | 32 | 0.9 | 1.7 | 0.00 | 0.01 | 0.01 | 99 | 1018.9 |
| 20260505165906 | 32 | 241 | 0.9 | 0.9 | 0.00 | 0.01 | 0.01 | 99 | 1019.0 |
| 20260505165403 | 32 | 89 | 2.6 | 2.6 | 0.00 | 0.01 | 0.01 | 99 | 1018.9 |
| 20260505164858 | 32 | 170 | 0.9 | 1.7 | 0.00 | 0.01 | 0.01 | 99 | 1018.7 |
| 20260505164355 | 32 | 231 | 0.0 | 0.0 | 0.00 | 0.01 | 0.01 | 99 | 1018.9 |
| 20260505163853 | 32 | 212 | 0.0 | 0.9 | 0.00 | 0.01 | 0.01 | 99 | 1019.3 |
| 20260505163352 | 32 | 238 | 0.0 | 0.0 | 0.00 | 0.01 | 0.01 | 99 | 1019.2 |
| 20260505162850 | 32 | 33 | 0.9 | 1.7 | 0.00 | 0.01 | 0.01 | 99 | 1019.2 |
| 20260505162345 | 31 | 158 | 1.7 | 1.7 | 0.00 | 0.01 | 0.01 | 99 | 1019.0 |
| 20260505161843 | 32 | 353 | 1.7 | 2.6 | 0.00 | 0.01 | 0.01 | 99 | 1019.2 |
| 20260505161340 | 32 | 186 | 0.0 | 0.9 | 0.00 | 0.01 | 0.01 | 99 | 1019.7 |
| 20260505160837 | 32 | 218 | 0.0 | 0.9 | 0.00 | 0.01 | 0.01 | 99 | 1019.4 |
| 20260505160335 | 31 | 223 | 0.9 | 0.9 | 0.00 | 0.01 | 0.01 | 99 | 1019.4 |
| 20260505153314 | 31 | 265 | 0.9 | 0.9 | 0.00 | 0.01 | 0.01 | 99 | 1019.3 |
| 20260505152811 | 31 | 180 | 0.0 | 0.0 | 0.00 | 0.01 | 0.01 | 99 | 1019.6 |
| 20260505152308 | 31 | 25 | 1.7 | 2.6 | 0.00 | 0.01 | 0.01 | 99 | 1019.4 |
| 20260505151802 | 31 | 149 | 1.7 | 1.7 | 0.00 | 0.01 | 0.01 | 99 | 1019.4 |
| 20260505151259 | 31 | 165 | 1.7 | 1.7 | 0.00 | 0.01 | 0.01 | 99 | 1019.6 |
| 20260505150756 | 31 | 351 | 2.6 | 2.6 | 0.00 | 0.01 | 0.01 | 99 | 1019.4 |
| 20260505150253 | 31 | 15 | 4.3 | 5.2 | 0.00 | 0.01 | 0.01 | 99 | 1019.7 |
| 20260505140217 | 31 | 341 | 2.6 | 2.6 | 0.00 | 0.00 | 0.00 | 99 | 1019.8 |
| 20260505130142 | 31 | 320 | 2.6 | 2.6 | 0.00 | 0.00 | 0.00 | 99 | 1019.3 |
| 20260505124631 | 31 | 341 | 0.9 | 0.9 | 0.00 | 0.00 | 0.00 | 99 | 1019.0 |
| 20260505124128 | 31 | 17 | 2.6 | 2.6 | 0.00 | 0.00 | 0.00 | 99 | 1019.0 |
| 20260505123623 | 31 | 291 | 1.7 | 1.7 | 0.00 | 0.00 | 0.00 | 99 | 1019.2 |
| 20260505123120 | 32 | 252 | 3.5 | 5.2 | 0.00 | 0.00 | 0.00 | 99 | 1019.2 |
| 20260505122617 | 32 | 284 | 1.7 | 1.7 | 0.00 | 0.00 | 0.00 | 99 | 1018.8 |
| 20260505122114 | 32 | 272 | 1.7 | 1.7 | 0.00 | 0.00 | 0.00 | 99 | 1018.9 |
| 20260505121605 | 32 | 253 | 0.0 | 0.0 | 0.00 | 0.00 | 0.00 | 99 | 1018.9 |
| 20260505121102 | 32 | 13 | 1.7 | 2.6 | 0.00 | 0.00 | 0.00 | 99 | 1018.9 |
| 20260505120558 | 32 | 225 | 0.0 | 0.0 | 0.00 | 0.00 | 0.00 | 99 | 1019.0 |
| 20260505120054 | 32 | 40 | 2.6 | 4.3 | 0.00 | 0.00 | 0.00 | 99 | 1019.0 |
| 20260505115548 | 32 | 214 | 0.9 | 1.7 | 0.00 | 0.00 | 0.00 | 99 | 1019.2 |
| 20260505115046 | 32 | 283 | 0.9 | 1.7 | 0.00 | 0.00 | 0.00 | 99 | 1018.8 |
| 20260505114543 | 32 | 132 | 0.0 | 0.9 | 0.00 | 0.00 | 0.00 | 99 | 1019.2 |
| 20260505114039 | 33 | 299 | 3.5 | 4.3 | 0.00 | 0.00 | 0.00 | 99 | 1018.8 |
| 20260505113535 | 33 | 294 | 1.7 | 2.6 | 0.00 | 0.00 | 0.00 | 99 | 1018.8 |
| 20260505113032 | 33 | 271 | 2.6 | 4.3 | 0.00 | 0.00 | 0.00 | 99 | 1018.4 |
| 20260505112528 | 33 | 320 | 1.7 | 4.3 | 0.00 | 0.00 | 0.00 | 99 | 1018.5 |
| 20260505112026 | 34 | 12 | 0.9 | 1.7 | 0.00 | 0.00 | 0.00 | 99 | 1018.4 |
| 20260505111520 | 34 | 41 | 5.2 | 6.1 | 0.00 | 0.00 | 0.00 | 99 | 1018.3 |
| 20260505111017 | 35 | 241 | 0.0 | 0.0 | 0.00 | 0.00 | 0.00 | 99 | 1018.0 |
| 20260505110513 | 35 | 329 | 0.9 | 0.9 | 0.00 | 0.00 | 0.00 | 99 | 1017.9 |
| 20260505101945 | 38 | 260 | 0.0 | 0.9 | 0.00 | 0.00 | 0.00 | 99 | 1017.9 |
| 20260505101438 | 38 | 7 | 1.7 | 2.6 | 0.00 | 0.00 | 0.00 | 99 | 1017.9 |
| 20260505100934 | 38 | 26 | 1.7 | 2.6 | 0.00 | 0.00 | 0.00 | 99 | 1017.7 |
| 20260505100431 | 38 | 284 | 0.0 | 0.0 | 0.00 | 0.00 | 0.00 | 99 | 1017.4 |
| 20260505095927 | 38 | 228 | 0.0 | 0.0 | 0.00 | 0.00 | 0.00 | 99 | 1017.7 |
| 20260505095424 | 38 | 226 | 0.0 | 0.0 | 0.00 | 0.00 | 0.00 | 99 | 1017.7 |
| 20260505094920 | 38 | 232 | 0.0 | 0.0 | 0.00 | 0.00 | 0.00 | 99 | 1017.7 |
| 20260505094418 | 38 | 229 | 0.0 | 0.0 | 0.00 | 0.00 | 0.00 | 99 | 1017.4 |
| 20260505093913 | 38 | 229 | 0.0 | 0.0 | 0.00 | 0.00 | 0.00 | 99 | 1017.4 |
| 20260505093411 | 38 | 242 | 0.0 | 0.0 | 0.00 | 0.00 | 0.00 | 99 | 1017.4 |
| 20260505092908 | 38 | 217 | 0.0 | 0.0 | 0.00 | 0.00 | 0.00 | 99 | 1018.2 |
| 20260505092406 | 38 | 194 | 0.0 | 0.0 | 0.00 | 0.00 | 0.00 | 99 | 1017.9 |
| 20260505091903 | 38 | 224 | 0.0 | 0.0 | 0.00 | 0.00 | 0.00 | 99 | 1017.8 |
| 20260505091400 | 38 | 222 | 0.0 | 0.0 | 0.00 | 0.00 | 0.00 | 99 | 1017.8 |
| 20260505090858 | 38 | 224 | 0.0 | 0.0 | 0.00 | 0.00 | 0.00 | 99 | 1018.0 |
| 20260505090356 | 38 | 221 | 0.0 | 0.0 | 0.00 | 0.00 | 0.00 | 99 | 1017.5 |
| 20260505085853 | 38 | 224 | 0.0 | 0.0 | 0.00 | 0.00 | 0.00 | 99 | 1017.8 |
| 20260505085351 | 38 | 222 | 0.0 | 0.0 | 0.00 | 0.00 | 0.00 | 99 | 1017.8 |
| 20260505084849 | 38 | 218 | 0.0 | 0.0 | 0.00 | 0.00 | 0.00 | 99 | 1017.9 |
| 20260505084347 | 38 | 214 | 0.0 | 0.0 | 0.00 | 0.00 | 0.00 | 99 | 1017.9 |
| 20260505083845 | 38 | 222 | 0.0 | 0.0 | 0.00 | 0.00 | 0.00 | 99 | 1017.8 |
| 20260505083342 | 38 | 222 | 0.0 | 0.0 | 0.00 | 0.00 | 0.00 | 99 | 1018.2 |
| 20260505082838 | 38 | 216 | 0.0 | 0.0 | 0.00 | 0.00 | 0.00 | 99 | 1018.0 |
| 20260505082334 | 38 | 223 | 0.0 | 0.0 | 0.00 | 0.00 | 0.00 | 99 | 1018.0 |
| 20260505081831 | 38 | 218 | 0.0 | 0.0 | 0.00 | 0.00 | 0.00 | 99 | 1018.2 |
| 20260505081327 | 38 | 222 | 0.0 | 0.0 | 0.00 | 0.00 | 0.00 | 99 | 1018.3 |
| 20260505080824 | 38 | 222 | 0.0 | 0.0 | 0.00 | 0.00 | 0.00 | 99 | 1018.2 |
| 20260505080320 | 38 | 222 | 0.0 | 0.0 | 0.00 | 0.00 | 0.00 | 99 | 1018.3 |
| 20260505075816 | 38 | 225 | 0.0 | 0.0 | 0.00 | 0.00 | 0.00 | 99 | 1018.3 |
| 20260505075313 | 38 | 222 | 0.0 | 0.0 | 0.00 | 0.00 | 0.00 | 99 | 1018.3 |
| 20260505074810 | 38 | 219 | 0.0 | 0.0 | 0.00 | 0.00 | 0.00 | 99 | 1018.0 |
| 20260505074307 | 38 | 231 | 0.0 | 0.0 | 0.00 | 0.00 | 0.00 | 99 | 1018.2 |
| 20260505073805 | 38 | 225 | 0.0 | 0.0 | 0.00 | 0.00 | 0.00 | 99 | 1018.3 |
| 20260505073303 | 38 | 224 | 0.0 | 0.0 | 0.00 | 0.00 | 0.00 | 99 | 1018.4 |
| 20260505072759 | 38 | 227 | 0.0 | 0.0 | 0.00 | 0.00 | 0.00 | 99 | 1018.3 |
| 20260505072255 | 38 | 226 | 0.0 | 0.0 | 0.00 | 0.00 | 0.00 | 99 | 1018.8 |
| 20260505071751 | 38 | 224 | 0.0 | 0.0 | 0.00 | 0.00 | 0.00 | 99 | 1018.5 |
| 20260505071248 | 38 | 219 | 0.0 | 0.0 | 0.00 | 0.00 | 0.00 | 99 | 1018.5 |
| 20260505070745 | 38 | 231 | 0.0 | 0.0 | 0.00 | 0.00 | 0.00 | 99 | 1018.5 |
| 20260505070242 | 38 | 269 | 0.0 | 0.9 | 0.00 | 0.00 | 0.00 | 99 | 1018.7 |
| 20260505065738 | 38 | 239 | 0.0 | 0.0 | 0.00 | 0.00 | 0.00 | 99 | 1018.7 |
| 20260505065235 | 37 | 228 | 0.0 | 0.0 | 0.00 | 0.00 | 0.00 | 99 | 1018.8 |
| 20260505064732 | 37 | 220 | 0.0 | 0.0 | 0.00 | 0.00 | 0.00 | 99 | 1018.7 |
| 20260505064229 | 37 | 227 | 0.0 | 0.0 | 0.00 | 0.00 | 0.00 | 99 | 1018.9 |
| 20260505063726 | 37 | 219 | 0.0 | 0.0 | 0.00 | 0.00 | 0.00 | 99 | 1018.8 |
| 20260505063222 | 37 | 202 | 0.0 | 0.0 | 0.00 | 0.00 | 0.00 | 99 | 1018.5 |
| 20260505062719 | 37 | 207 | 0.0 | 0.0 | 0.00 | 0.00 | 0.00 | 99 | 1018.4 |
| 20260505062217 | 37 | 214 | 0.0 | 0.0 | 0.00 | 0.00 | 0.00 | 99 | 1018.5 |
| 20260505061713 | 38 | 223 | 0.0 | 0.0 | 0.00 | 0.00 | 0.00 | 99 | 1018.5 |
| 20260505061212 | 37 | 170 | 1.7 | 1.7 | 0.00 | 0.00 | 0.00 | 99 | 1018.4 |
| 20260505060708 | 37 | 214 | 0.0 | 0.0 | 0.00 | 0.00 | 0.00 | 99 | 1018.2 |
| 20260505060205 | 37 | 225 | 0.0 | 0.0 | 0.00 | 0.00 | 0.00 | 99 | 1018.5 |
| 20260505055700 | 37 | 218 | 0.0 | 0.0 | 0.00 | 0.39 | 0.39 | 99 | 1018.3 |
| 20260505055158 | 37 | 225 | 0.0 | 0.0 | 0.00 | 0.39 | 0.39 | 99 | 1018.5 |
| 20260505054655 | 38 | 224 | 0.0 | 0.0 | 0.00 | 0.39 | 0.39 | 99 | 1018.9 |
| 20260505054153 | 37 | 208 | 0.0 | 0.9 | 0.00 | 0.39 | 0.39 | 99 | 1018.8 |
| 20260505053650 | 37 | 214 | 0.0 | 0.0 | 0.00 | 0.39 | 0.39 | 99 | 1019.0 |
| 20260505053146 | 37 | 222 | 0.0 | 0.0 | 0.00 | 0.39 | 0.39 | 99 | 1018.7 |
| 20260505052643 | 37 | 225 | 0.0 | 0.0 | 0.00 | 0.39 | 0.39 | 99 | 1018.8 |
| 20260505052141 | 37 | 203 | 0.0 | 0.0 | 0.00 | 0.39 | 0.39 | 99 | 1018.7 |
| 20260505051637 | 37 | 224 | 0.0 | 0.0 | 0.00 | 0.39 | 0.39 | 99 | 1018.8 |
| 20260505051136 | 37 | 222 | 0.0 | 0.0 | 0.00 | 0.39 | 0.39 | 99 | 1018.8 |